レモン-パンスターズ彗星

C/2021 F1 ( Lemmon-PanSTARRS )

English version
Home page
Updated on January 9, 2023

---------------------------------------------------------------------

・ プロフィール

発見日 2021年3月19日
発見光度 20.9等、21.8等
発見者 Mt. Lemmon Survey, Pan-STARRS 1 telescope (Haleakala)

・ 写真集

・ 軌道要素

Epoch 2022 Aug. 9.0 TT = JDT 2459800.5
T 2022 Apr. 6.87108 TT                                  Rudenko
q   0.9954315            (2000.0)            P               Q
z  +0.0042633      Peri.  146.82044     +0.70295300     +0.60125551
 +/-0.0000011      Node   203.45267     +0.23498241     +0.30785685
e   0.9957561      Incl.  107.32604     +0.67129751     -0.73737099
From 727 observations 2021 Mar. 19-2022 Aug. 15, mean residual 0".6.

・ 星図

・ 光度変化

        H = 14.5  G = 0.15                       [    ,-210]  (              〜2021年 9月 8日)
        m1 = 7.0 + 5 logΔ + 20.0 log r(t - 20)  [-210,    ]  (2021年 9月 8日〜              )

---------------------------------------------------------------------

軌道要素はM.P.E.C. 2022-Q139に掲載されたものです。
星図はステラナビゲータ Ver.10 (アストロアーツ) で作成したものです。
光度グラフはComet for Windowsで作成したものです。

---------------------------------------------------------------------

Copyright(C) Seiichi Yoshida (comet@aerith.net). All rights reserved.